Tracking 19644 objects as of 25-Apr-2019
HD Live streaming from Space Station
objects crossing your sky now

OPS 8464 (TRANSIT 5B-7)

Track OPS 8464 (TRANSIT 5B-7) now!
10-day predictions
OPS 8464 (TRANSIT 5B-7) is classified as:


NORAD ID: 1514
Int'l Code: 1965-065F
Perigee: 1,083.7 km
Apogee: 1,186.9 km
Inclination: 89.8 °
Period: 107.9 minutes
Semi major axis: 7506 km
RCS: 1.5965 m2 (large)
Launch date: August 13, 1965
Source: United States (US)
Launch site: AIR FORCE WESTERN TEST RANGE (AFWTR)
aabbcc
Your satellite tracking list
Your tracking list is empty




NASA's NSSDC Master Catalog

Two Line Element Set (TLE):
1  1514U 65065F   19114.52474312 +.00000050 +00000-0 +81059-4 0  9999
2  1514 089.8366 250.3837 0068750 313.0284 078.6540 13.34940917613043
Source of the keplerian elements: AFSPC